Flag for Lithuania Weather past 2 weeks in Kaunas, Lithuania

Now
68 °F

Passing clouds.


Feels Like: 68 °F
Forecast: 55 / 63 °F
Wind: 7 mph from East

Location: Kaunas

Current Time: Aug 30, 2014 at 5:37:42 PM

Latest Report: Aug 30, 2014 at 5:20 PM


Visibility: N/A

Pressure: 29.98 "Hg

Humidity: 53%

Dew point: 50 °F

Location of KaunasLocation

Historic Weather in Kaunas — Graph

°F

Kaunas temperature yesterday

Maximum temperature yesterday: 66 °F (at 4:20 PM)
Minimum temperature yesterday: 50 °F (at 2:20 AM)
Average temperature yesterday: 57 °F

Past Weeks' High & Low Weather Summary

 TemperatureHumidityPressure
High72 °F (Aug 18, 2:20 PM)100% (Aug 24, 1:20 AM)30.01 "Hg (Aug 24, 1:20 AM)
Low43 °F (Aug 30, 2:50 AM)35% (Aug 22, 3:20 PM)29.59 "Hg (Aug 27, 8:50 AM)
Average58 °F74%29.82 "Hg
* Reported Aug 15 4:50 PM — Aug 30 4:20 PM, Kaunas, Weather by CustomWeather, © 2014

Note: Actual official high and low records may vary slightly from our data, if they occured in-between our weather recording intervals... More about our weather records

Advertising

Kaunas weather history for previous 24 hours

 ConditionsComfort  
Time TempWeatherWind HumidityBarometerVisibility
4:20 PM
Aug 30
66 °FPartly sunny.5 mph52%29.98 "HgN/A
3:50 PM68 °FPassing clouds.5 mph49%29.98 "HgN/A
3:20 PM68 °FPassing clouds.5 mph49%29.98 "HgN/A
2:50 PM68 °FScattered clouds.3 mph46%29.98 "HgN/A
2:20 PM68 °FScattered clouds.5 mph53%30.01 "HgN/A
1:50 PM68 °FPartly sunny.5 mph49%30.01 "HgN/A
1:20 PM66 °FPartly sunny.3 mph52%30.01 "HgN/A
12:50 PM64 °FPartly sunny.3 mph60%30.01 "HgN/A
12:20 PM64 °FPassing clouds.5 mph56%30.01 "HgN/A
11:50 AM64 °FPassing clouds.3 mph56%30.01 "HgN/A
11:20 AM64 °FSunny.2 mph60%30.01 "Hg10 mi
10:50 AM61 °FPassing clouds.3 mph72%30.01 "HgN/A
10:20 AM59 °FPassing clouds.5 mph82%30.01 "HgN/A
9:50 AM57 °FPassing clouds.5 mph82%30.01 "HgN/A
9:20 AM55 °FPassing clouds.5 mph82%30.01 "HgN/A
8:50 AM52 °FSunny.3 mph88%30.01 "Hg10 mi
8:20 AM50 °FScattered clouds.2 mph88%30.01 "HgN/A
7:50 AM45 °FPartly sunny.2 mph93%30.01 "HgN/A
7:20 AM43 °FPartly cloudy.1 mph93%30.01 "HgN/A
6:50 AM43 °FFog.2 mph93%30.01 "Hg6 mi
6:20 AM43 °FFog.2 mph93%30.01 "Hg6 mi
5:50 AM43 °FFog.1 mph93%30.01 "HgN/A
5:20 AM43 °FPassing clouds.No wind93%29.98 "Hg5 mi
4:50 AM43 °FFog.No wind93%29.98 "HgN/A
4:20 AM43 °FPassing clouds.1 mph93%29.98 "HgN/A
3:50 AM43 °FPassing clouds.No wind93%29.98 "Hg5 mi
3:20 AM43 °FPassing clouds.No wind100%29.98 "Hg5 mi
2:50 AM43 °FPassing clouds.1 mph93%29.98 "HgN/A
2:20 AM45 °FQuite cool.No wind93%29.98 "HgN/A
1:50 AM46 °FCool.1 mph93%29.98 "HgN/A
1:20 AM46 °FCool.1 mph93%29.98 "HgN/A
12:50 AM48 °FCool.No wind94%29.98 "HgN/A
12:20 AM46 °FCool.1 mph93%29.98 "HgN/A
10:20 PM
Aug 29
52 °FClear.2 mph88%29.98 "Hg10 mi
9:50 PM50 °FClear.3 mph94%29.98 "Hg10 mi
9:20 PM54 °FSunny.No wind82%29.98 "Hg10 mi
8:50 PM54 °FSunny.2 mph88%29.98 "Hg10 mi
8:20 PM61 °FSunny.2 mph63%29.95 "Hg10 mi
7:50 PM63 °FBroken clouds.5 mph59%29.95 "HgN/A
7:20 PM64 °FBroken clouds.2 mph56%29.95 "HgN/A
6:50 PM64 °FBroken clouds.6 mph56%29.95 "HgN/A
6:20 PM64 °FBroken clouds.8 mph56%29.95 "HgN/A
5:50 PM64 °FSunny.9 mph56%29.95 "Hg10 mi
5:20 PM66 °FPartly sunny.12 mph49%29.95 "HgN/A
Weather by CustomWeather, © 2014

See weather overviewHow to use our weather pages